TimeMDT,TemperatureF,Dew PointF,Humidity,Sea Level PressureIn,VisibilityMPH,Wind Direction,Wind SpeedMPH,Gust SpeedMPH,PrecipitationIn,Events,Conditions,WindDirDegrees,DateUTC
12:53 AM,53.1,19.9,27,29.93,10.0,Calm,Calm,-,N/A,,Clear,0,2012-10-04 06:53:00
1:53 AM,55.9,21.0,26,29.92,10.0,ENE,8.1,-,N/A,,Clear,60,2012-10-04 07:53:00
2:53 AM,55.9,19.9,25,29.92,10.0,Calm,Calm,-,N/A,,Clear,0,2012-10-04 08:53:00
3:53 AM,50.0,21.0,32,29.94,10.0,SE,5.8,-,N/A,,Clear,130,2012-10-04 09:53:00
4:53 AM,52.0,19.9,28,29.96,10.0,SW,10.4,-,N/A,,Clear,230,2012-10-04 10:53:00
5:53 AM,53.1,21.9,30,29.98,10.0,WNW,3.5,-,N/A,,Clear,290,2012-10-04 11:53:00
6:53 AM,55.0,23.0,29,30.01,10.0,Calm,Calm,-,N/A,,Clear,0,2012-10-04 12:53:00
7:53 AM,54.0,24.1,31,30.06,10.0,SSE,4.6,-,N/A,,Clear,160,2012-10-04 13:53:00
8:53 AM,61.0,26.1,26,30.06,10.0,SSE,12.7,-,N/A,,Clear,160,2012-10-04 14:53:00
9:53 AM,63.0,28.9,28,30.06,10.0,SSE,16.1,-,N/A,,Clear,150,2012-10-04 15:53:00
10:53 AM,66.0,30.9,27,30.05,10.0,SSE,15.0,-,N/A,,Clear,160,2012-10-04 16:53:00
11:53 AM,70.0,28.9,22,30.03,10.0,South,9.2,-,N/A,,Clear,180,2012-10-04 17:53:00
12:53 PM,75.9,27.0,16,30.00,10.0,WSW,13.8,23.0,N/A,,Clear,240,2012-10-04 18:53:00
1:53 PM,78.1,26.1,15,29.95,10.0,SW,19.6,25.3,N/A,,Clear,230,2012-10-04 19:53:00
2:53 PM,78.1,25.0,14,29.93,10.0,SW,16.1,23.0,N/A,,Clear,230,2012-10-04 20:53:00
3:53 PM,79.0,21.9,12,29.93,10.0,WSW,19.6,28.8,N/A,,Clear,240,2012-10-04 21:53:00
4:53 PM,79.0,23.0,13,29.90,10.0,SW,15.0,21.9,N/A,,Partly Cloudy,230,2012-10-04 22:53:00
5:53 PM,75.9,19.9,12,29.89,10.0,WSW,13.8,25.3,N/A,,Partly Cloudy,240,2012-10-04 23:53:00
6:53 PM,73.0,19.9,14,29.90,10.0,WSW,12.7,-,N/A,,Clear,240,2012-10-05 00:53:00
7:53 PM,64.0,21.0,19,29.94,10.0,North,3.5,-,N/A,,Clear,360,2012-10-05 01:53:00
8:53 PM,66.0,21.9,19,29.91,10.0,ESE,4.6,-,N/A,,Clear,120,2012-10-05 02:53:00
9:53 PM,61.0,21.9,22,29.92,10.0,ESE,8.1,-,N/A,,Clear,120,2012-10-05 03:53:00
10:53 PM,57.0,24.1,28,29.93,10.0,Calm,Calm,-,N/A,,Clear,0,2012-10-05 04:53:00
11:53 PM,55.9,30.9,39,29.94,10.0,SSE,6.9,-,N/A,,Clear,160,2012-10-05 05:53:00